Theta_e
296 296 296 297 297 297 297 297 297 298 298 299 299 299 300 300 301 301 303 304 304 306 306 305 304 305 305 303 302 302 303 302 303 304 305 307 308 308 309 307 306 307 307 307 307 307 307
296 296 295 296 296 296 297 297 298 298 298 298 299 299 300 300 301 302 303 306 305 306 304 304 303 303 303 302 302 304 302 301 301 301 302 304 308 308 308 308 308 307 307 307 307 308 308
295 294 295 296 296 297 297 297 297 298 298 298 298 299 299 300 301 303 304 305 303 305 305 305 309 307 302 299 301 301 300 300 300 301 302 302 302 305 306 307 307 307 308 309 309 309 310
295 295 295 296 296 296 297 297 297 297 298 298 298 299 299 300 301 304 305 306 306 304 304 308 307 305 302 299 301 299 299 300 301 303 303 303 303 303 306 307 308 308 308 308 308 307 308
296 295 295 295 295 296 296 296 297 297 297 298 298 298 299 300 301 303 302 303 305 306 303 304 305 303 299 298 299 299 298 299 300 301 304 306 305 306 306 307 308 307 308 308 308 308 308
297 295 295 295 295 295 296 296 296 297 297 298 299 299 299 300 300 301 304 304 302 302 303 302 300 301 298 297 298 298 297 298 300 299 302 303 305 306 306 307 305 306 307 307 307 308 307
299 296 295 295 295 295 296 296 296 297 297 298 299 299 299 300 300 300 301 305 305 300 299 299 298 298 297 298 298 297 297 298 298 298 298 300 304 305 303 303 302 304 307 308 307 307 307
299 297 295 295 295 295 296 296 296 296 297 298 299 299 299 299 300 299 301 303 306 303 300 298 298 298 297 298 297 296 297 298 298 298 298 300 304 300 299 299 300 302 306 308 308 306 306
299 298 296 295 295 295 295 296 296 296 297 298 299 299 298 299 300 299 301 303 307 306 303 298 298 297 297 297 296 295 296 296 296 297 297 298 300 298 300 301 305 305 305 307 308 309 308
299 298 296 295 295 295 296 295 295 296 297 297 299 300 299 299 299 298 301 305 307 306 300 297 298 297 297 297 297 295 296 296 296 296 296 295 295 296 302 305 300 303 306 305 308 309 310
300 299 296 295 295 295 295 295 295 296 297 298 299 299 299 299 298 298 301 307 307 307 306 297 297 297 297 296 295 295 295 295 295 295 295 294 294 296 301 301 299 301 301 302 304 306 310
299 300 298 295 295 295 295 295 295 296 297 298 299 298 299 299 299 299 303 303 302 303 301 297 296 297 296 296 296 295 295 295 294 295 295 294 294 299 300 297 299 301 302 304 307 308 314
299 300 298 295 294 294 295 296 295 296 297 299 298 298 299 299 298 299 302 302 302 300 297 296 296 296 296 296 295 295 295 295 295 295 295 294 295 298 299 299 300 301 304 307 311 312 311
299 300 299 296 294 294 295 296 296 297 297 298 298 298 299 298 298 299 299 299 297 296 296 296 296 296 296 295 295 295 295 295 295 295 294 294 294 295 296 299 300 301 304 307 307 311 309
298 300 299 297 294 294 295 296 296 297 298 297 299 297 298 298 298 299 298 296 296 296 296 296 296 296 296 295 295 295 295 295 294 294 294 294 294 295 296 297 299 299 301 300 301 302 310
299 300 300 298 294 294 295 295 296 297 297 297 298 297 298 298 298 298 298 297 296 295 295 296 296 296 296 295 295 295 295 295 295 294 294 294 294 295 295 296 299 298 299 301 302 311 313
298 299 299 298 294 294 294 295 296 297 297 297 298 297 296 298 298 297 298 297 296 295 295 296 296 296 295 295 295 295 295 295 295 294 294 294 294 295 295 295 295 297 297 298 300 303 310
298 298 298 298 294 293 294 294 295 296 297 297 297 295 296 297 296 293 297 296 296 295 294 295 295 295 295 294 294 295 296 295 294 294 292 293 294 295 294 296 296 296 296 297 300 301 302
297 297 296 296 294 293 293 294 294 295 296 296 295 295 294 296 297 294 295 295 296 295 294 294 295 295 294 294 293 294 294 294 293 292 292 293 295 294 293 295 295 294 295 297 298 302 306
295 295 295 295 294 293 293 294 294 295 296 296 295 294 294 294 293 294 294 295 295 294 295 293 294 294 294 293 293 293 294 292 291 292 293 293 294 293 293 294 294 295 295 298 300 302 301
295 295 295 295 294 293 293 293 293 294 295 295 294 292 292 294 294 293 294 294 294 293 293 294 294 293 293 292 293 293 291 292 291 292 292 292 293 293 294 294 294 295 298 297 296 297 297
295 295 295 294 294 294 293 293 293 294 294 294 293 292 293 293 293 293 294 294 293 293 293 293 293 293 292 293 292 292 291 291 291 292 292 293 293 292 294 294 294 295 297 294 294 294 294
294 295 294 294 294 294 293 293 293 293 293 293 292 292 292 292 293 293 293 293 293 292 292 292 292 292 292 292 291 290 290 290 291 289 288 288 288 292 293 293 294 296 293 294 293 294 293
294 294 295 294 294 294 293 293 293 293 293 293 292 292 292 293 293 293 293 292 292 292 292 292 291 290 290 290 289 290 290 291 291 289 287 286 287 290 291 294 294 293 291 292 293 292 293
294 294 294 294 294 293 293 294 293 293 293 293 293 292 291 291 291 292 292 292 291 291 290 291 290 289 290 289 290 288 288 287 287 288 287 286 286 288 292 293 293 290 290 291 293 290 292
294 294 294 294 294 293 293 293 294 293 293 292 292 292 291 290 291 291 291 291 291 290 290 290 289 289 288 289 288 286 286 285 285 285 286 286 287 291 290 291 289 289 290 292 292 291 290
293 294 294 294 294 294 293 294 294 293 293 293 292 291 291 291 291 291 291 290 290 289 290 289 288 288 288 289 288 286 286 285 284 284 284 285 286 287 288 291 291 289 289 290 289 289 289
293 294 294 294 294 294 294 293 294 294 293 293 292 291 291 291 291 291 290 289 288 289 290 288 287 288 289 288 287 286 286 285 285 285 285 285 285 286 287 287 288 289 289 289 289 288 288
293 294 294 294 294 294 294 293 294 294 293 293 292 291 290 290 290 289 290 289 287 287 290 288 288 288 288 288 286 286 286 286 285 285 286 286 286 287 288 289 288 288 288 287 287 287 287
Wind_Speed
22 22 22 22 22 22 23 24 25 24 24 23 24 25 26 24 25 26 23 16 14 14 14 19 15 11 12 19 12 23 25 27 21 14 10 7 5 3 5 3 5 12 10 13 14 15 16
21 22 24 24 24 24 24 25 25 25 26 24 24 25 25 24 25 26 17 15 17 15 23 26 27 24 16 21 12 22 31 32 23 16 10 10 8 8 8 9 10 6 10 13 14 15 18
24 23 23 24 24 24 24 25 25 25 24 23 23 25 25 24 25 24 13 11 22 17 10 11 11 5 31 20 14 26 33 32 22 14 14 12 12 8 3 4 14 8 13 13 15 19 12
25 24 24 24 24 24 25 25 25 25 24 23 22 24 24 23 23 18 12 9 5 16 17 4 3 11 9 24 11 33 38 30 21 15 11 12 8 9 8 9 7 9 11 12 3 4 7
25 25 25 24 24 24 24 24 25 26 24 22 22 25 25 22 22 16 20 19 9 3 14 16 8 6 9 23 26 36 39 23 23 20 14 9 1 2 2 7 11 5 15 16 13 13 12
25 25 25 25 25 25 25 25 26 26 25 23 21 24 24 20 21 18 3 9 24 12 4 4 24 5 27 26 25 39 42 13 19 29 5 14 5 1 3 4 8 11 11 13 11 4 7
25 25 26 26 26 26 26 27 26 27 26 23 22 23 23 18 19 21 14 5 2 9 30 21 16 13 22 13 13 40 47 7 17 21 11 8 7 9 12 10 12 16 18 24 24 16 20
25 25 27 27 27 27 27 27 27 27 26 23 22 21 22 17 14 19 15 8 9 9 15 16 16 20 28 12 15 39 45 14 14 17 20 6 7 10 17 15 13 14 17 26 20 11 16
25 26 27 27 27 28 28 28 28 27 25 21 21 22 23 19 8 21 19 10 8 11 5 12 15 24 32 8 16 36 44 13 11 16 16 4 7 19 17 10 14 13 13 19 20 17 17
24 25 26 26 27 27 27 28 28 27 24 20 21 23 23 21 7 22 16 7 7 8 4 12 13 13 27 6 11 27 39 9 11 8 11 5 16 15 15 3 17 16 7 17 18 12 9
24 25 26 26 26 27 28 28 27 26 23 19 19 22 22 21 16 20 10 6 8 3 3 16 8 10 23 21 11 26 29 8 14 12 9 14 12 13 11 11 22 12 18 21 20 14 16
24 25 26 27 27 28 29 29 28 27 23 17 17 19 21 21 22 15 5 5 3 2 5 7 8 14 13 20 11 19 16 22 7 5 12 12 12 2 1 21 16 19 16 20 16 12 12
24 25 26 27 27 27 29 29 29 28 22 13 16 16 21 24 28 11 3 2 3 7 7 10 9 11 5 15 8 16 12 21 15 12 19 17 10 5 6 23 13 23 14 4 6 8 13
24 25 25 26 26 27 28 28 28 26 20 9 10 17 16 25 21 7 3 4 11 2 4 6 10 7 7 18 7 15 10 8 12 13 5 11 11 9 16 8 9 17 10 6 7 7 12
22 24 25 25 25 27 28 28 29 27 21 11 4 20 24 24 21 6 2 8 2 3 6 8 10 3 4 9 8 11 9 5 7 14 10 8 7 20 12 16 4 12 14 20 9 18 10
22 24 24 24 25 26 27 29 30 28 22 13 4 3 28 19 17 5 8 6 3 7 7 4 7 7 7 12 11 12 5 2 4 11 14 7 12 7 12 14 3 11 12 8 6 5 7
21 23 24 24 25 26 27 29 30 28 22 13 6 5 29 16 15 20 5 5 4 9 12 7 4 4 5 10 12 5 4 3 9 11 16 12 5 10 15 5 14 12 7 5 6 6 5
21 22 23 24 24 26 26 28 30 30 22 8 14 6 29 12 11 6 4 3 4 10 12 7 2 5 4 13 8 5 4 6 22 13 19 7 7 11 22 18 4 8 11 8 6 6 7
19 21 22 23 24 25 26 28 30 30 26 12 7 6 31 19 4 3 4 4 5 9 5 7 4 6 10 9 7 9 6 18 16 24 8 6 3 11 11 1 5 9 17 18 17 10 2
18 19 21 23 24 25 27 26 28 28 24 14 4 3 9 24 14 4 3 6 7 10 2 9 2 8 15 10 2 10 13 15 27 27 16 11 6 9 10 15 16 15 22 17 11 4 8
16 18 19 21 23 24 25 27 27 27 26 7 8 5 5 4 8 12 5 3 10 10 6 8 3 14 13 7 13 5 22 23 23 10 10 9 8 14 14 17 18 14 10 16 20 14 9
14 16 17 18 21 23 24 26 26 26 21 31 6 4 5 4 5 4 8 6 10 9 4 5 11 14 11 7 10 23 23 21 15 17 12 10 8 16 12 17 10 9 14 16 19 19 11
13 14 15 16 18 21 22 23 25 26 27 17 15 10 3 5 3 2 2 4 6 12 3 6 14 13 10 8 22 30 28 20 6 13 14 14 13 10 5 12 12 7 19 14 15 16 13
11 12 13 14 15 17 19 20 21 23 25 22 19 10 4 2 3 3 3 7 10 12 8 14 9 11 13 22 27 18 13 9 5 11 23 18 19 6 7 11 3 5 18 11 9 18 15
10 11 11 12 12 14 15 18 18 18 19 18 15 12 4 2 2 3 8 7 10 8 9 5 10 18 18 15 5 5 4 7 12 13 18 20 12 7 4 8 4 24 27 18 5 16 19
9 10 10 10 10 11 13 15 15 16 16 16 12 13 5 2 1 3 4 3 3 5 4 3 12 10 14 5 3 6 6 13 9 14 22 18 13 4 7 4 6 16 25 23 8 15 30
8 9 9 8 8 10 11 12 13 14 14 15 13 10 5 2 1 4 2 3 4 4 2 5 11 7 12 4 3 5 6 11 10 16 20 13 11 11 11 3 5 20 24 14 17 10 25
8 8 8 7 8 9 9 10 11 12 13 12 12 9 8 4 6 1 6 1 4 1 1 7 3 6 4 5 3 4 4 5 8 12 11 8 8 6 6 7 6 28 13 10 12 18 19
8 8 8 7 7 7 8 8 10 13 14 13 12 9 9 5 4 9 6 5 7 3 4 4 1 2 1 2 1 1 3 3 8 5 10 5 4 4 4 6 16 18 17 21 22 20 22
Wind_Direction
42 38 37 35 33 30 27 26 23 21 19 17 16 16 14 16 13 8 5 23 38 47 71 91 83 84 82 66 35 355 339 349 347 339 310 292 280 214 232 240 291 257 270 266 274 291 277
39 36 36 33 30 27 24 22 20 18 17 15 13 14 14 16 14 9 20 53 62 80 103 101 79 70 73 61 343 338 338 350 348 335 311 269 244 239 254 232 231 240 253 274 286 282 279
35 33 32 30 28 25 22 19 18 16 14 13 12 12 13 14 17 14 46 79 69 70 139 121 44 51 48 36 353 344 350 352 351 325 301 285 283 262 245 232 252 269 279 272 266 259 244
32 31 30 28 25 23 21 18 15 15 14 14 12 10 12 12 22 30 44 52 117 64 53 94 112 68 83 10 355 0 355 360 11 355 322 302 302 252 251 275 287 273 274 279 181 140 219
29 30 29 26 24 22 20 17 13 13 12 13 15 12 12 12 22 49 75 67 67 116 65 78 65 92 27 354 15 1 6 7 5 15 44 50 77 185 233 245 268 254 271 265 282 263 258
27 28 27 24 22 19 18 16 12 11 11 12 14 13 12 12 12 25 185 75 60 64 116 38 51 68 1 346 15 3 10 18 22 15 44 20 18 127 43 306 267 308 279 279 274 331 265
26 25 25 23 20 17 16 15 12 8 10 11 13 13 11 11 14 15 24 207 104 47 64 82 61 67 350 8 343 11 9 3 21 29 14 355 46 34 346 336 319 309 290 284 274 278 292
25 24 23 21 18 16 14 12 11 9 9 11 12 15 11 10 14 21 23 85 88 132 78 67 44 28 9 41 19 12 8 28 19 16 6 12 65 10 333 318 308 296 289 276 293 276 259
25 23 22 20 17 16 14 11 10 9 8 8 9 11 12 8 4 16 35 59 110 134 94 23 22 20 6 34 33 10 8 3 13 4 2 335 314 338 338 345 350 305 278 285 283 293 271
24 22 21 18 16 15 12 11 9 9 6 4 4 8 10 12 12 9 29 63 122 132 90 1 359 10 359 31 28 9 10 14 18 345 355 351 319 330 350 38 353 309 335 322 307 302 279
23 20 18 17 15 13 11 12 9 9 6 7 7 10 10 16 14 13 14 91 127 129 62 330 360 351 5 31 336 0 10 23 23 346 5 325 304 328 347 337 326 275 306 298 284 275 266
21 18 16 14 14 12 9 11 9 8 4 9 16 9 6 10 15 11 54 101 103 42 38 353 1 345 9 3 353 355 13 26 43 356 348 327 298 349 91 329 315 300 304 291 265 233 238
18 17 15 13 12 10 10 11 10 7 7 22 26 16 10 11 3 14 73 14 45 64 340 349 339 336 19 352 341 3 5 34 39 2 350 333 328 344 2 337 338 346 336 299 233 214 250
16 14 14 12 11 9 8 8 13 7 9 3 34 27 23 19 8 24 20 66 65 332 2 307 328 330 22 6 346 345 7 25 35 23 337 345 332 3 339 340 312 321 321 305 306 267 264
13 13 13 12 10 8 7 5 11 8 6 3 4 20 23 17 4 23 17 51 82 360 318 327 327 16 356 4 330 343 355 21 39 32 17 330 282 313 318 345 0 339 335 303 248 252 267
11 10 12 12 10 9 7 6 10 10 6 10 20 58 19 16 11 74 69 103 87 30 329 348 10 19 342 347 350 337 320 72 19 23 14 326 295 295 323 323 165 329 307 332 329 278 246
9 9 10 12 12 10 8 8 9 13 10 15 53 65 11 15 37 57 73 78 80 19 31 20 9 327 353 345 322 301 302 342 12 345 346 316 247 292 317 336 316 344 342 334 279 270 319
9 8 7 11 13 13 11 10 11 13 19 30 54 57 8 41 55 42 45 29 50 4 22 14 54 64 359 332 308 290 298 311 351 342 326 304 285 289 306 304 255 326 318 324 309 304 287
10 9 9 11 15 15 14 12 14 15 15 31 66 59 33 59 71 39 66 41 73 16 9 11 2 6 6 327 316 309 328 330 324 326 317 306 274 316 317 244 356 330 315 320 306 269 348
11 10 10 10 14 16 17 18 17 19 18 39 78 44 36 55 59 71 74 38 8 4 360 354 350 12 342 327 287 293 316 317 321 320 320 347 269 260 274 288 298 306 321 351 356 350 325
9 8 7 10 13 18 18 20 22 25 28 61 50 62 32 11 23 48 76 35 16 7 352 356 9 357 341 316 319 344 317 315 333 337 330 320 276 284 281 280 288 302 33 28 29 7 33
3 5 7 8 11 16 19 21 25 27 39 61 75 56 69 49 20 50 23 32 15 353 318 349 344 338 323 314 335 313 311 319 326 318 335 358 323 312 291 282 294 359 28 43 41 25 10
360 3 5 6 9 14 20 22 24 28 32 53 48 54 81 25 27 70 40 353 352 348 323 342 340 333 328 330 310 297 298 293 303 48 16 358 341 320 271 309 306 112 2 28 35 34 13
355 357 2 6 9 12 19 22 25 26 32 39 43 41 51 72 59 49 20 344 339 339 306 319 353 359 321 316 314 320 354 127 135 37 24 354 344 322 297 312 51 52 6 344 10 27 16
345 349 354 1 4 11 14 15 19 24 27 25 34 37 56 76 354 41 356 343 335 341 334 321 349 326 333 322 326 354 5 9 331 0 3 348 334 310 297 317 24 17 353 341 347 31 16
333 340 346 354 1 6 9 8 9 15 21 19 24 36 43 115 174 337 335 340 334 344 334 317 333 353 353 359 17 13 3 344 344 340 349 345 346 349 16 334 54 357 345 5 156 31 359
317 329 338 339 349 352 358 2 3 6 12 14 20 34 24 352 153 351 32 332 325 332 281 293 343 350 9 19 41 4 8 343 344 348 347 358 359 12 7 340 117 6 358 5 36 330 336
302 317 324 327 340 343 353 359 0 358 358 3 4 4 4 321 298 247 320 354 3 273 339 321 16 11 19 34 29 358 338 349 339 338 347 354 349 357 345 14 16 346 11 27 337 344 355
294 304 313 315 323 330 340 348 345 341 342 356 359 343 336 309 284 312 157 9 357 299 273 323 256 309 336 45 33 269 314 312 336 338 353 8 356 315 313 12 340 9 17 13 14 10 7